Location: Liscomb Game Sanctuary
(45.1633°N, 62.5575°W)
Time: 12:49:42
(UTC-03:00)

Cosmos 1331 Rocket - Pass Details

Date: 22 February 2018
Orbit: 750 x 777 km, 74.0° (Epoch: 22 June)

Event Time Altitude Azimuth Distance (km) Brightness Sun altitude
Rises 20:00:26 0° 337° (NNW) 3,268 7.7 -24.0°
Reaches altitude 10° 20:02:49 10° 336° (NNW) 2,337 6.9 -24.4°
Maximum altitude 20:08:07 75° 252° (WSW) 808 4.1 -25.3°
Enters shadow 20:09:43 46° 178° (S) 1,040 4.5 -25.6°
